Location: The Jewett Observatory
(46.7288°N, 117.1525°W)
Time: 04:36:16
(UTC-07:00)

Amateur Radio Satellites - All Passes

Search period start: 27 July 2016 04:06
Search period end: 28 July 2016 04:06
Location: The Jewett Observatory, 46.7288°N, 117.1525°W

Satellite Date Start Highest point End Downlink Frequencies (MHz)
Time Altitude Azimuth
STARS 27 Jul 04:10:12 04:14:35 81° 76° (ENE) 04:19:03 437.465
GONETS M04 27 Jul 04:34:12 04:41:02 26° 281° (W) 04:47:55
RS-15 27 Jul 04:41:28 04:42:43 10° 89° (E) 04:43:59 29.354- 29.394
HORYU 2 27 Jul 04:44:37 04:47:16 15° 90° (E) 04:49:54 437.375
PCSat 27 Jul 04:50:49 04:56:13 65° 242° (WSW) 05:01:33 145.827
O/OREOS (USA 219) 27 Jul 04:56:10 04:58:58 16° 47° (NE) 05:01:45 437.305
CUSAT 1 27 Jul 05:02:40 05:05:27 19° 286° (WNW) 05:07:51 437.405
Gurwin Techsat 1B 27 Jul 05:09:51 05:11:43 12° 307° (NW) 05:13:35 435.225
KKS-1 27 Jul 05:10:00 05:12:32 15° 270° (W) 05:15:05 437.445
STRAND 1 27 Jul 05:17:07 05:18:17 11° 52° (NE) 05:19:26 437.568
BEESAT 2 27 Jul 05:20:21 05:21:24 11° 251° (WSW) 05:22:27 435.950
Cosmos 2499 27 Jul 05:20:50 05:24:52 15° 287° (WNW) 05:28:47 435.465 / 435.565
DANDE 27 Jul 05:22:11 05:27:17 42° 284° (WNW) 05:31:09 436.750
ITAMSAT 1 27 Jul 05:23:06 05:26:58 22° 300° (WNW) 05:30:48 435.822/435.867
CUBESAT XI-V 27 Jul 05:23:24 05:28:01 74° 257° (WSW) 05:32:39 437.345
AIST 2 27 Jul 05:39:53 05:44:05 77° 53° (NE) 05:48:15 435.215
AO-7 27 Jul 05:40:33 05:48:45 61° 296° (WNW) 05:56:53 29.400- 29.500
NOAA 15 27 Jul 05:42:22 05:45:22 15° 89° (E) 05:48:22 137.62
STARS 27 Jul 05:50:10 05:51:33 11° 272° (W) 05:52:56 437.465
NOAA 18 27 Jul 05:57:20 06:00:39 16° 89° (E) 06:03:58 137.9125
Cosmos 2491 27 Jul 06:11:36 06:13:19 11° 44° (NE) 06:15:01 435.465 / 435.565
GOMX 1 27 Jul 06:12:42 06:16:19 19° 91° (E) 06:20:01 467.674
HORYU 2 27 Jul 06:19:48 06:24:15 62° 288° (WNW) 06:28:39 437.375
LilacSat-2 27 Jul 06:24:17 06:27:25 23° 94° (E) 06:30:30 437.200
O/OREOS (USA 219) 27 Jul 06:34:25 06:38:58 81° 249° (WSW) 06:43:31 437.305
Cubesat XI-IV 27 Jul 06:36:50 06:41:42 34° 96° (E) 06:46:32 437.490
RS-15 27 Jul 06:40:58 06:51:51 52° 112° (ESE) 07:03:18 29.354- 29.394
BRITE-PL 27 Jul 06:47:31 06:52:17 75° 102° (ESE) 06:57:27 437.365/2234.400
STRAND 1 27 Jul 06:51:23 06:56:28 63° 71° (ENE) 07:01:34 437.568
CUTE-I 27 Jul 07:00:17 07:05:33 55° 101° (E) 07:10:46 437.470
HO-68 27 Jul 07:17:05 07:20:45 14° 85° (E) 07:24:24 435.675
AIST 2 27 Jul 07:20:00 07:21:59 13° 250° (WSW) 07:23:58 435.215
NOAA 15 27 Jul 07:20:30 07:25:46 80° 287° (WNW) 07:31:02 137.62
AO-7 27 Jul 07:34:49 07:39:55 18° 319° (NW) 07:45:00 29.400- 29.500
NOAA 18 27 Jul 07:36:24 07:41:59 81° 287° (WNW) 07:47:31 137.9125
CANX-2 27 Jul 07:36:58 07:38:59 13° 89° (E) 07:41:00 2200.000
DOVE 4 27 Jul 07:42:36 07:47:41 61° 100° (E) 07:52:54 437.250
YUBILEINY 27 Jul 07:47:31 07:50:04 12° 69° (ENE) 07:52:37 435.215
GOMX 1 27 Jul 07:49:47 07:54:43 62° 287° (WNW) 07:59:56 467.674
CUTE 1.7 + AOD 2 27 Jul 07:49:55 07:52:31 16° 90° (E) 07:55:06 437.475
CINEMA 3 27 Jul 07:54:38 07:58:51 26° 93° (E) 08:03:02 145.822/145.860
LilacSat-2 27 Jul 07:58:18 08:01:45 31° 291° (WNW) 08:05:10 437.200
Cosmos 2491 27 Jul 08:04:41 08:13:02 46° 71° (ENE) 08:21:21 435.465 / 435.565
Cubesat XI-IV 27 Jul 08:16:54 08:21:47 37° 295° (WNW) 08:26:38 437.490
PRISM 27 Jul 08:17:40 08:21:42 61° 72° (ENE) 08:25:43 437.425
SO-50 27 Jul 08:26:42 08:31:30 59° 122° (ESE) 08:36:16 436.795
BRITE-PL 27 Jul 08:27:25 08:30:19 16° 299° (WNW) 08:33:21 437.365/2234.400
SEEDS 27 Jul 08:28:14 08:31:51 28° 95° (E) 08:35:26 437.485
ANTELSAT 27 Jul 08:31:22 08:32:22 11° 55° (NE) 08:33:22 437.575/2403.000
STRAND 1 27 Jul 08:32:30 08:36:05 19° 269° (W) 08:39:41 437.568
COMPASS 1 27 Jul 08:39:57 08:43:27 26° 94° (E) 08:46:56 437.405
UWE-3 27 Jul 08:40:07 08:42:50 15° 88° (E) 08:45:31 435.000/436.395/437.385
CUTE-I 27 Jul 08:41:00 08:45:15 25° 299° (WNW) 08:49:29 437.470
RS-15 27 Jul 08:52:45 09:04:15 60° 318° (NW) 09:16:23 29.354- 29.394
CUBEBUG 2 27 Jul 09:01:15 09:05:36 35° 95° (E) 09:09:51 437.445
NOAA 15 27 Jul 09:02:10 09:04:44 14° 306° (NW) 09:07:17 137.62
HO-68 27 Jul 09:02:27 09:09:41 75° 105° (ESE) 09:16:52 435.675
AAUSAT CUBESAT 2 27 Jul 09:07:54 09:11:50 41° 98° (E) 09:15:43 437.432
TIGRISAT 27 Jul 09:09:59 09:13:34 22° 63° (ENE) 09:17:12 435.000
CANX-2 27 Jul 09:11:06 09:15:18 64° 287° (WNW) 09:19:27 2200.000
NOAA 18 27 Jul 09:18:45 09:21:47 15° 307° (NW) 09:24:51 137.9125
DOVE 4 27 Jul 09:21:09 09:24:58 22° 297° (WNW) 09:28:54 437.250
Oscar 11 27 Jul 09:21:13 09:24:47 25° 94° (E) 09:28:19 145.826/435.025
Cosmos 2504 27 Jul 09:23:20 09:28:46 18° 74° (ENE) 09:34:09 435.465 / 435.565
CUTE 1.7 + AOD 2 27 Jul 09:24:34 09:28:42 53° 288° (WNW) 09:32:47 437.475
UNISAT 6 27 Jul 09:25:44 09:29:51 32° 67° (ENE) 09:34:01 437.425
DELFI C3 27 Jul 09:31:10 09:33:04 13° 90° (E) 09:34:57 145.870
CINEMA 3 27 Jul 09:31:22 09:36:07 44° 291° (WNW) 09:40:51 145.822/145.860
GOMX 1 27 Jul 09:31:22 09:31:56 10° 305° (NW) 09:32:30 467.674
YUBILEINY 27 Jul 09:36:15 09:44:47 58° 91° (E) 09:53:23 435.215
QB50P2 27 Jul 09:51:50 09:53:01 11° 57° (ENE) 09:54:13 145.880/145.840
POLYITAN 1 27 Jul 09:54:19 09:55:39 11° 57° (ENE) 09:56:59 437.675
HUMSAT D 27 Jul 09:54:45 09:56:29 12° 88° (E) 09:58:12 437.325/437.525
PRISM 27 Jul 09:55:28 09:57:24 13° 270° (W) 09:59:20 437.425
Cosmos 2491 27 Jul 10:01:44 10:09:53 46° 273° (W) 10:18:03 435.465 / 435.565
ANTELSAT 27 Jul 10:03:34 10:08:12 71° 74° (ENE) 10:12:55 437.575/2403.000
SEEDS 27 Jul 10:03:54 10:07:32 29° 292° (WNW) 10:11:08 437.485
SO-50 27 Jul 10:08:08 10:12:19 28° 322° (NW) 10:16:28 436.795
FUNcube-1 27 Jul 10:14:21 10:18:54 81° 103° (ESE) 10:23:18 145.935
UWE-3 27 Jul 10:15:09 10:19:46 65° 286° (WNW) 10:24:15 435.000/436.395/437.385
ZACube-1 27 Jul 10:15:22 10:19:55 87° 97° (E) 10:24:21 437.345
COMPASS 1 27 Jul 10:15:23 10:19:01 30° 292° (WNW) 10:22:39 437.405
M-CUBED/EXP-1 PRIME 27 Jul 10:34:45 10:39:09 38° 103° (ESE) 10:43:32 437.505
NANOSAT C BR1 27 Jul 10:34:48 10:38:16 25° 65° (ENE) 10:41:46 145.865
CUBEBUG 2 27 Jul 10:38:01 10:42:07 30° 294° (WNW) 10:46:08 437.445
DUCHIFAT 1 27 Jul 10:38:56 10:42:27 26° 66° (ENE) 10:45:59 145.980
AAUSAT CUBESAT 2 27 Jul 10:44:01 10:47:03 20° 296° (WNW) 10:50:05 437.432
TIGRISAT 27 Jul 10:45:27 10:49:56 48° 261° (W) 10:54:31 435.000
HO-68 27 Jul 10:51:00 10:56:47 27° 305° (NW) 11:02:33 435.675
BUGSAT 1 27 Jul 10:53:38 10:56:22 17° 62° (ENE) 10:59:08 437.445
QB50P1 27 Jul 10:56:40 11:00:41 43° 70° (ENE) 11:04:44 145.935-145.965
Oscar 11 27 Jul 10:57:03 11:01:00 35° 291° (WNW) 11:04:54 145.826/435.025
AUBIESAT-1 27 Jul 11:00:38 11:05:13 56° 106° (ESE) 11:09:46 437.475
UNISAT 6 27 Jul 11:02:21 11:06:31 32° 265° (W) 11:10:45 437.425
POPSAT HIP 1 27 Jul 11:03:02 11:07:08 49° 71° (ENE) 11:11:17 437.405
DELFI C3 27 Jul 11:04:24 11:08:17 57° 287° (WNW) 11:12:09 145.870
RS-15 27 Jul 11:09:18 11:19:53 34° 350° (N) 11:30:48 29.354- 29.394
Cosmos 2504 27 Jul 11:11:52 11:20:43 78° 95° (E) 11:29:32 435.465 / 435.565
QB50P2 27 Jul 11:23:51 11:28:07 87° 72° (ENE) 11:32:26 145.880/145.840
POLYITAN 1 27 Jul 11:26:29 11:30:45 88° 74° (ENE) 11:35:05 437.675
HUMSAT D 27 Jul 11:28:24 11:32:36 68° 286° (WNW) 11:36:43 437.325/437.525
AISAT 27 Jul 11:33:47 11:36:32 16° 91° (E) 11:39:16 437.250
YUBILEINY 27 Jul 11:34:04 11:42:02 37° 293° (WNW) 11:50:04 435.215
JAS-2 27 Jul 11:34:19 11:39:45 40° 67° (ENE) 11:44:44 435.910
DX 1 27 Jul 11:34:24 11:35:14 10° 88° (E) 11:36:05 434.975-435.025
ANTELSAT 27 Jul 11:42:53 11:45:25 14° 272° (W) 11:48:00 437.575/2403.000
UKube-1 27 Jul 11:47:08 11:48:33 11° 88° (E) 11:49:57 .
Oscar 19 27 Jul 11:51:41 11:54:57 17° 58° (ENE) 11:58:13 437.125/150
FUNcube-1 27 Jul 11:52:15 11:54:29 14° 302° (WNW) 11:56:41 145.935
SO-50 27 Jul 11:53:20 11:54:25 11° 345° (NNW) 11:55:29 436.795
ZACube-1 27 Jul 11:53:32 11:55:30 13° 302° (WNW) 11:57:28 437.345
ESTCUBE 1 27 Jul 12:08:27 12:12:53 55° 101° (E) 12:17:17 437.505/2401.250
M-CUBED/EXP-1 PRIME 27 Jul 12:09:26 12:13:31 30° 300° (WNW) 12:17:37 437.505
NANOSAT C BR1 27 Jul 12:09:59 12:13:51 35° 263° (W) 12:17:47 145.865
DUCHIFAT 1 27 Jul 12:14:11 12:18:01 33° 263° (W) 12:21:55 145.980
SPROUT 27 Jul 12:18:26 12:21:44 21° 93° (E) 12:25:00 437.525
50 SAT 27 Jul 12:23:01 12:26:31 47° 100° (E) 12:29:59 437.505
VELOX 1 27 Jul 12:24:07 12:28:25 47° 99° (E) 12:32:43 145.980
CUBEBUG 1 27 Jul 12:24:38 12:28:59 55° 101° (E) 12:33:18 437.445
BUGSAT 1 27 Jul 12:27:23 12:31:22 51° 260° (W) 12:35:26 437.445
QB50P1 27 Jul 12:33:30 12:36:39 20° 268° (W) 12:39:50 145.935-145.965
AUBIESAT-1 27 Jul 12:35:47 12:39:18 22° 303° (WNW) 12:42:48 437.475
POPSAT HIP 1 27 Jul 12:40:19 12:43:12 18° 269° (W) 12:46:07 437.405
AIST 1 27 Jul 12:53:11 12:56:46 27° 89° (E) 13:00:22
AO-7 27 Jul 13:01:39 13:06:47 18° 41° (NE) 13:11:54 29.400- 29.500
Cosmos 2504 27 Jul 13:07:37 13:15:01 29° 297° (WNW) 13:22:23 435.465 / 435.565
DX 1 27 Jul 13:07:39 13:12:03 86° 285° (WNW) 13:16:25 434.975-435.025
AISAT 27 Jul 13:08:59 13:13:23 59° 288° (WNW) 13:17:46 437.250
Gurwin Techsat 1B 27 Jul 13:12:06 13:16:59 39° 66° (ENE) 13:21:53 435.225
TISAT 1 27 Jul 13:12:59 13:16:06 19° 92° (E) 13:19:10 437.305
JAS-2 27 Jul 13:19:38 13:24:56 32° 263° (W) 13:29:49 435.910
UKube-1 27 Jul 13:20:47 13:25:09 79° 285° (WNW) 13:29:28 .
RS-15 27 Jul 13:25:17 13:36:39 40° 24° (NNE) 13:48:04 29.354- 29.394
ITAMSAT 1 27 Jul 13:26:07 13:29:50 20° 59° (ENE) 13:33:33 435.822/435.867
Oscar 19 27 Jul 13:28:33 13:33:41 77° 257° (WSW) 13:38:50 437.125/150
ESTCUBE 1 27 Jul 13:46:12 13:49:18 19° 298° (WNW) 13:52:23 437.505/2401.250
GONETS M04 27 Jul 13:48:38 13:53:44 17° 74° (ENE) 13:58:51
CUSAT 1 27 Jul 13:49:04 13:50:57 15° 73° (ENE) 13:53:01 437.405
SPROUT 27 Jul 13:53:46 13:57:51 42° 290° (WNW) 14:01:55 437.525
50 SAT 27 Jul 13:57:48 13:59:47 14° 297° (WNW) 14:01:46 437.505
AO-85 27 Jul 14:01:02 14:06:17 57° 121° (ESE) 14:11:18 145.980
VELOX 1 27 Jul 14:01:15 14:04:36 21° 297° (WNW) 14:07:56 145.980
CUBEBUG 1 27 Jul 14:01:53 14:04:52 18° 298° (WNW) 14:07:51 437.445
ITUPSAT 1 27 Jul 14:06:28 14:09:06 15° 89° (E) 14:11:44 437.325
Cosmos 2499 27 Jul 14:14:18 14:19:58 19° 76° (ENE) 14:25:30 435.465 / 435.565
AIST 1 27 Jul 14:30:34 14:34:18 29° 288° (WNW) 14:38:02
DX 1 27 Jul 14:46:07 14:47:32 11° 303° (WNW) 14:48:56 434.975-435.025
TISAT 1 27 Jul 14:47:53 14:51:57 44° 290° (WNW) 14:56:00 437.305
AO-7 27 Jul 14:49:46 14:57:57 61° 64° (ENE) 15:06:10 29.400- 29.500
Gurwin Techsat 1B 27 Jul 14:52:14 14:56:59 32° 265° (W) 15:01:46 435.225
SWISSCUBE 27 Jul 14:57:59 15:02:38 49° 100° (E) 15:07:14 437.505
UKube-1 27 Jul 14:59:45 15:00:25 10° 304° (NW) 15:01:06 .
ITAMSAT 1 27 Jul 15:03:36 15:08:48 68° 257° (WSW) 15:14:02 435.822/435.867
Oscar 19 27 Jul 15:13:16 15:13:52 10° 275° (W) 15:14:28 437.125/150
SO-50 27 Jul 15:15:40 15:19:26 23° 35° (NE) 15:23:06 436.795
BEESAT 27 Jul 15:19:16 15:24:03 72° 103° (ESE) 15:28:48 436.000
CUSAT 1 27 Jul 15:30:29 15:32:54 23° 263° (W) 15:35:42 437.405
RS-15 27 Jul 15:38:38 15:51:05 86° 53° (NE) 16:03:24 29.354- 29.394
GONETS M04 27 Jul 15:40:23 15:49:03 79° 95° (E) 15:57:47
AO-85 27 Jul 15:42:25 15:47:04 31° 320° (NW) 15:51:30 145.980
ITUPSAT 1 27 Jul 15:42:42 15:47:29 72° 287° (WNW) 15:52:13 437.325
HORYU 2 27 Jul 15:45:04 15:48:28 22° 63° (ENE) 15:51:54 437.375
MOZHAYETS 4 27 Jul 15:56:53 16:00:42 25° 94° (E) 16:04:28
DANDE 27 Jul 15:57:16 15:59:37 31° 264° (W) 16:02:08 436.750
STARS 27 Jul 15:58:41 16:00:27 12° 88° (E) 16:02:13 437.465
Cosmos 2499 27 Jul 16:02:55 16:11:48 81° 96° (E) 16:20:26 435.465 / 435.565
Cubesat XI-IV 27 Jul 16:25:14 16:27:40 13° 53° (NE) 16:30:06 437.490
BRITE-PL 27 Jul 16:26:17 16:28:10 13° 59° (ENE) 16:30:03 437.365/2234.400
SWISSCUBE 27 Jul 16:36:27 16:40:07 22° 298° (WNW) 16:43:47 437.505
AO-7 27 Jul 16:43:40 16:51:08 35° 264° (W) 16:58:40 29.400- 29.500
CUTE-I 27 Jul 16:47:07 16:50:52 20° 58° (ENE) 16:54:38 437.470
KKS-1 27 Jul 16:55:30 17:00:01 86° 103° (ESE) 17:04:32 437.445
SO-50 27 Jul 16:55:45 17:00:25 72° 236° (SW) 17:04:55 436.795
BEESAT 27 Jul 16:58:19 17:01:17 17° 301° (WNW) 17:04:15 436.000
NOAA 15 27 Jul 17:04:36 17:09:14 33° 64° (ENE) 17:13:53 137.62
PHONESAT 2.4 27 Jul 17:05:55 17:07:14 12° 157° (SSE) 17:08:33 2401.200-2431.200
LilacSat-2 27 Jul 17:09:24 17:12:08 19° 64° (ENE) 17:14:52 437.200
CUBESAT XI-V 27 Jul 17:17:34 17:21:11 22° 92° (E) 17:24:49 437.345
DOVE 4 27 Jul 17:17:53 17:18:37 10° 55° (NE) 17:19:21 437.250
HORYU 2 27 Jul 17:20:25 17:24:45 47° 261° (W) 17:29:06 437.375
ITUPSAT 1 27 Jul 17:23:13 17:24:27 11° 306° (NW) 17:25:40 437.325
GOMX 1 27 Jul 17:24:21 17:27:39 23° 64° (ENE) 17:31:05 467.674
NOAA 18 27 Jul 17:25:39 17:30:47 40° 65° (ENE) 17:35:57 137.9125
AO-85 27 Jul 17:27:30 17:29:05 11° 342° (NNW) 17:30:38 145.980
BEESAT 3 27 Jul 17:31:21 17:31:29 10° 108° (ESE) 17:31:37 437.485
STARS 27 Jul 17:32:54 17:37:22 77° 286° (WNW) 17:41:48 437.465
MOZHAYETS 4 27 Jul 17:33:44 17:37:58 38° 292° (WNW) 17:42:11
GONETS M04 27 Jul 17:39:50 17:46:53 27° 299° (WNW) 17:54:02
HO-68 27 Jul 17:49:33 17:54:05 18° 48° (NE) 17:58:38 435.675
RS-15 27 Jul 17:52:08 18:02:16 32° 257° (WSW) 18:12:19 29.354- 29.394
Cosmos 2499 27 Jul 17:58:41 18:05:53 27° 298° (WNW) 18:12:55 435.465 / 435.565
Cubesat XI-IV 27 Jul 18:01:28 18:06:50 74° 73° (ENE) 18:12:14 437.490
BRITE-PL 27 Jul 18:01:59 18:06:07 71° 258° (WSW) 18:10:19 437.365/2234.400
CUTE-I 27 Jul 18:25:00 18:30:22 72° 257° (WSW) 18:35:47 437.470
CANX-2 27 Jul 18:32:35 18:35:03 15° 61° (ENE) 18:37:30 2200.000
KKS-1 27 Jul 18:33:53 18:35:56 13° 302° (WNW) 18:37:59 437.445
PHONESAT 2.4 27 Jul 18:40:34 18:43:08 24° 174° (S) 18:45:42 2401.200-2431.200
LilacSat-2 27 Jul 18:42:29 18:46:09 41° 262° (W) 18:49:52 437.200
NOAA 15 27 Jul 18:44:05 18:48:56 38° 263° (W) 18:53:49 137.62
CUTE 1.7 + AOD 2 27 Jul 18:45:26 18:48:17 18° 63° (ENE) 18:51:09 437.475
DOVE 4 27 Jul 18:51:06 18:55:24 77° 74° (ENE) 19:00:00 437.250
CUBESAT XI-V 27 Jul 18:54:24 18:58:47 43° 290° (WNW) 19:03:08 437.345
CINEMA 3 27 Jul 18:58:55 19:02:56 31° 66° (ENE) 19:07:07 145.822/145.860
STRAND 1 27 Jul 19:00:08 19:03:25 17° 90° (E) 19:06:40 437.568
GOMX 1 27 Jul 19:01:38 19:05:33 38° 264° (W) 19:09:39 467.674
BEESAT 3 27 Jul 19:04:33 19:08:29 89° 306° (NW) 19:12:28 437.485
NOAA 18 27 Jul 19:06:32 19:11:30 33° 264° (W) 19:16:31 137.9125
BEESAT 2 27 Jul 19:11:52 19:15:45 60° 123° (ESE) 19:19:42 435.950
STARS 27 Jul 19:11:59 19:12:57 11° 304° (NW) 19:13:54 437.465
SEEDS 27 Jul 19:22:35 19:26:13 29° 67° (ENE) 19:29:52 437.485
COMPASS 1 27 Jul 19:33:24 19:36:54 27° 67° (ENE) 19:40:25 437.405
HO-68 27 Jul 19:33:29 19:40:38 73° 69° (ENE) 19:47:50 435.675
PCSat 27 Jul 19:34:50 19:40:12 66° 119° (ESE) 19:45:36 145.827
FUNcube-1 27 Jul 19:39:10 19:40:59 12° 57° (ENE) 19:42:48 145.935
UWE-3 27 Jul 19:39:35 19:42:49 19° 61° (ENE) 19:46:05 435.000/436.395/437.385
ZACube-1 27 Jul 19:40:04 19:42:13 13° 58° (ENE) 19:44:22 437.345
YUBILEINY 27 Jul 19:42:53 19:50:46 34° 66° (ENE) 19:58:34 435.215
Cubesat XI-IV 27 Jul 19:44:03 19:47:29 17° 271° (W) 19:50:56 437.490
AAUSAT CUBESAT 2 27 Jul 20:00:38 20:04:31 40° 70° (ENE) 20:08:25 437.432
CUBEBUG 2 27 Jul 20:01:38 20:05:57 40° 69° (ENE) 20:10:23 437.445
CANX-2 27 Jul 20:06:10 20:10:25 65° 259° (WSW) 20:14:41 2200.000
CUTE-I 27 Jul 20:11:04 20:11:22 10° 275° (W) 20:11:38 437.470
PHONESAT 2.4 27 Jul 20:16:42 20:19:09 21° 191° (S) 20:21:36 2401.200-2431.200
AUBIESAT-1 27 Jul 20:17:19 20:19:22 14° 52° (NE) 20:21:29 437.475
Oscar 11 27 Jul 20:18:35 20:22:17 28° 66° (ENE) 20:26:00 145.826/435.025
CUTE 1.7 + AOD 2 27 Jul 20:19:34 20:23:45 53° 260° (W) 20:27:57 437.475
DELFI C3 27 Jul 20:20:25 20:22:12 13° 61° (ENE) 20:23:58 145.870
DOVE 4 27 Jul 20:32:11 20:33:48 12° 274° (W) 20:35:27 437.250
CINEMA 3 27 Jul 20:35:53 20:40:00 33° 265° (W) 20:44:20 145.822/145.860
STRAND 1 27 Jul 20:38:00 20:43:07 69° 288° (WNW) 20:48:10 437.568
BEESAT 3 27 Jul 20:44:16 20:46:45 16° 326° (NNW) 20:49:16 437.485
ISS 27 Jul 20:45:25 20:47:30 16° 136° (SE) 20:49:36 145.825
HUMSAT D 27 Jul 20:48:40 20:51:01 14° 60° (ENE) 20:53:21 437.325/437.525
O/OREOS (USA 219) 27 Jul 20:49:21 20:53:47 69° 112° (ESE) 20:58:15 437.305
AO-85 27 Jul 20:50:48 20:54:13 20° 32° (NNE) 20:57:26 145.980
BEESAT 2 27 Jul 20:50:54 20:53:57 21° 323° (NW) 20:57:00 435.950
SEEDS 27 Jul 20:58:11 21:01:53 29° 265° (W) 21:05:36 437.485
Cosmos 2504 27 Jul 21:02:12 21:09:34 34° 66° (ENE) 21:16:26 435.465 / 435.565
COMPASS 1 27 Jul 21:08:38 21:12:23 31° 264° (W) 21:16:07 437.405
Cosmos 2491 27 Jul 21:09:34 21:17:42 47° 88° (E) 21:25:52 435.465 / 435.565
FUNcube-1 27 Jul 21:11:56 21:16:29 86° 76° (ENE) 21:21:07 145.935
ZACube-1 27 Jul 21:13:16 21:17:49 87° 255° (WSW) 21:22:27 437.345
UWE-3 27 Jul 21:14:19 21:18:50 58° 260° (W) 21:23:29 435.000/436.395/437.385
AIST 2 27 Jul 21:17:51 21:21:54 62° 122° (ESE) 21:26:00 435.215
PCSat 27 Jul 21:19:30 21:24:04 27° 319° (NW) 21:28:39 145.827
HO-68 27 Jul 21:23:21 21:29:00 25° 269° (W) 21:34:42 435.675
M-CUBED/EXP-1 PRIME 27 Jul 21:23:49 21:27:38 68° 68° (ENE) 21:31:49 437.505
PRISM 27 Jul 21:31:22 21:35:28 67° 103° (ESE) 21:39:33 437.425
AAUSAT CUBESAT 2 27 Jul 21:37:03 21:40:10 20° 267° (W) 21:43:17 437.432
CUBEBUG 2 27 Jul 21:38:53 21:42:42 25° 267° (W) 21:46:37 437.445
YUBILEINY 27 Jul 21:39:27 21:48:09 63° 268° (W) 21:56:46 435.215
AUBIESAT-1 27 Jul 21:49:18 21:53:11 78° 253° (WSW) 21:57:24 437.475
DELFI C3 27 Jul 21:52:34 21:56:32 69° 259° (W) 22:00:30 145.870
ANTELSAT 27 Jul 21:54:25 21:56:28 13° 87° (E) 21:58:30 437.575/2403.000
Oscar 11 27 Jul 21:54:26 21:58:20 32° 264° (W) 22:02:16 145.826/435.025
STRAND 1 27 Jul 22:19:42 22:21:21 12° 307° (NW) 22:23:01 437.568
ISS 27 Jul 22:20:17 22:23:33 90° 348° (NNW) 22:26:49 145.825
HUMSAT D 27 Jul 22:21:48 22:26:06 70° 258° (WSW) 22:30:25 437.325/437.525
O/OREOS (USA 219) 27 Jul 22:30:40 22:33:40 17° 312° (NW) 22:36:43 437.305
AO-85 27 Jul 22:30:48 22:35:18 81° 236° (WSW) 22:39:24 145.980
DX 1 27 Jul 22:31:53 22:34:18 15° 59° (ENE) 22:36:44 434.975-435.025
AISAT 27 Jul 22:33:48 22:37:04 21° 63° (ENE) 22:40:21 437.250
TIGRISAT 27 Jul 22:34:20 22:38:26 29° 95° (E) 22:42:24 435.000
UKube-1 27 Jul 22:43:58 22:46:31 16° 60° (ENE) 22:49:04 .
UNISAT 6 27 Jul 22:50:43 22:55:13 45° 99° (E) 22:59:34 437.425
FUNcube-1 27 Jul 22:51:57 22:53:22 11° 274° (W) 22:54:47 145.935
ZACube-1 27 Jul 22:54:14 22:54:48 10° 274° (W) 22:55:23 437.345
Cosmos 2504 27 Jul 22:55:26 23:03:26 57° 269° (W) 23:10:49 435.465 / 435.565
AIST 2 27 Jul 22:57:33 23:00:46 21° 323° (NW) 23:04:00 435.215
AIST 1 27 Jul 22:58:57 22:59:43 10° 62° (ENE) 23:00:30
M-CUBED/EXP-1 PRIME 27 Jul 23:01:16 23:02:46 12° 268° (W) 23:04:17 437.505
50 SAT 27 Jul 23:03:12 23:06:30 33° 70° (ENE) 23:09:49 437.505
Cosmos 2491 27 Jul 23:06:23 23:14:36 45° 290° (WNW) 23:22:53 435.465 / 435.565
QB50P2 27 Jul 23:07:59 23:09:35 12° 88° (E) 23:11:12 145.880/145.840
PRISM 27 Jul 23:08:10 23:10:17 14° 300° (WNW) 23:12:22 437.425
ESTCUBE 1 27 Jul 23:10:27 23:14:55 72° 74° (ENE) 23:19:25 437.505/2401.250
POLYITAN 1 27 Jul 23:10:32 23:12:14 12° 88° (E) 23:13:58 437.675
SPROUT 27 Jul 23:14:44 23:18:08 24° 65° (ENE) 23:21:34 437.525
CUBEBUG 1 27 Jul 23:23:06 23:27:22 65° 74° (ENE) 23:31:40 437.445
VELOX 1 27 Jul 23:23:55 23:28:14 59° 72° (ENE) 23:32:34 145.980
ANTELSAT 27 Jul 23:29:06 23:33:47 78° 285° (WNW) 23:38:20 437.575/2403.000
YUBILEINY 27 Jul 23:39:31 23:43:00 13° 290° (WNW) 23:46:31 435.215
NANOSAT C BR1 27 Jul 23:51:18 23:55:05 29° 95° (E) 23:58:50 145.865
GONETS M04 27 Jul 23:53:49 23:55:47 11° 44° (NE) 23:57:46
DUCHIFAT 1 27 Jul 23:55:10 23:58:58 30° 96° (E) 00:02:44 145.980
ISS 27 Jul 23:57:12 00:00:14 35° 353° (N) 00:03:16 145.825
DX 1 28 Jul 00:05:40 00:09:58 69° 257° (WSW) 00:14:20 434.975-435.025
BUGSAT 1 28 Jul 00:06:52 00:09:57 19° 92° (E) 00:13:01 437.445
TISAT 1 28 Jul 00:07:25 00:10:38 22° 64° (ENE) 00:13:52 437.305
AISAT 28 Jul 00:09:02 00:13:15 46° 261° (W) 00:17:31 437.250
TIGRISAT 28 Jul 00:10:56 00:15:07 33° 293° (WNW) 00:19:12 435.000
QB50P1 28 Jul 00:13:56 00:18:09 53° 100° (E) 00:22:20 145.935-145.965
UKube-1 28 Jul 00:17:48 00:22:05 65° 258° (WSW) 00:26:22 .
POPSAT HIP 1 28 Jul 00:20:26 00:24:43 62° 101° (E) 00:28:57 437.405
JAS-2 28 Jul 00:24:21 00:28:40 24° 94° (E) 00:33:13 435.910
UNISAT 6 28 Jul 00:27:59 00:31:39 23° 297° (WNW) 00:35:15 437.425
SWISSCUBE 28 Jul 00:32:57 00:34:45 12° 55° (NE) 00:36:34 437.505
AIST 1 28 Jul 00:33:39 00:38:01 90° 129° (SE) 00:42:23
50 SAT 28 Jul 00:37:33 00:40:14 19° 266° (W) 00:42:54 437.505
QB50P2 28 Jul 00:41:37 00:45:56 74° 285° (WNW) 00:50:11 145.880/145.840
POLYITAN 1 28 Jul 00:44:15 00:48:34 73° 286° (WNW) 00:52:50 437.675
SPROUT 28 Jul 00:49:54 00:53:53 38° 263° (W) 00:57:56 437.525
ESTCUBE 1 28 Jul 00:50:05 00:52:14 13° 271° (W) 00:54:25 437.505/2401.250
BEESAT 28 Jul 00:52:52 00:55:49 16° 59° (ENE) 00:58:47 436.000
Cosmos 2504 28 Jul 00:53:26 00:54:44 10° 292° (WNW) 00:56:01 435.465 / 435.565
CUBEBUG 1 28 Jul 01:01:54 01:04:07 14° 271° (W) 01:06:19 437.445
VELOX 1 28 Jul 01:02:27 01:05:05 16° 270° (W) 01:07:44 145.980
ANTELSAT 28 Jul 01:08:15 01:09:39 11° 304° (NW) 01:11:04 437.575/2403.000
Cosmos 2491 28 Jul 01:13:25 01:14:23 10° 316° (NW) 01:15:21 435.465 / 435.565
ITUPSAT 1 28 Jul 01:15:26 01:19:19 25° 63° (ENE) 01:23:12 437.325
NANOSAT C BR1 28 Jul 01:27:03 01:30:47 29° 293° (WNW) 01:34:28 145.865
Gurwin Techsat 1B 28 Jul 01:27:30 01:29:11 11° 86° (E) 01:30:53 435.225
DUCHIFAT 1 28 Jul 01:30:55 01:34:36 28° 293° (WNW) 01:38:16 145.980
ISS 28 Jul 01:34:01 01:37:08 41° 13° (NNE) 01:40:15 145.825
Oscar 19 28 Jul 01:37:26 01:41:58 30° 95° (E) 01:46:30 437.125/150
BUGSAT 1 28 Jul 01:41:28 01:45:32 45° 290° (WNW) 01:49:36 437.445
TISAT 1 28 Jul 01:42:04 01:46:02 41° 262° (W) 01:50:03 437.305
BEESAT 3 28 Jul 01:42:09 01:45:12 21° 38° (NE) 01:48:16 437.485
GONETS M04 28 Jul 01:47:05 01:55:30 46° 71° (ENE) 02:03:54
BEESAT 2 28 Jul 01:50:16 01:52:54 17° 34° (NE) 01:55:30 435.950
QB50P1 28 Jul 01:50:39 01:53:33 18° 298° (WNW) 01:56:26 145.935-145.965
Cosmos 2499 28 Jul 01:51:58 01:59:03 34° 66° (ENE) 02:05:40 435.465 / 435.565
POPSAT HIP 1 28 Jul 01:57:25 02:00:02 16° 299° (WNW) 02:02:38 437.405
SWISSCUBE 28 Jul 02:06:58 02:11:46 79° 74° (ENE) 02:16:35 437.505
JAS-2 28 Jul 02:08:59 02:14:03 49° 290° (WNW) 02:19:28 435.910
KKS-1 28 Jul 02:22:03 02:24:29 15° 59° (ENE) 02:26:57 437.445
BEESAT 28 Jul 02:28:16 02:33:03 73° 257° (WSW) 02:37:52 436.000
PCSat 28 Jul 02:37:04 02:41:18 22° 37° (NE) 02:45:31 145.827
AO-7 28 Jul 02:50:24 02:54:35 14° 85° (E) 02:58:43 29.400- 29.500
ITUPSAT 1 28 Jul 02:52:19 02:56:55 45° 261° (W) 03:01:32 437.325
CUSAT 1 28 Jul 02:56:17 02:58:30 15° 94° (E) 03:00:27 437.405
STARS 28 Jul 02:57:41 03:00:30 17° 60° (ENE) 03:03:20 437.465
MOZHAYETS 4 28 Jul 03:01:14 03:05:24 34° 68° (ENE) 03:09:35
Gurwin Techsat 1B 28 Jul 03:04:38 03:09:59 81° 104° (ESE) 03:15:18 435.225
ISS 28 Jul 03:10:28 03:13:40 55° 212° (SSW) 03:16:52 145.825
ITAMSAT 1 28 Jul 03:13:43 03:18:27 34° 96° (E) 03:23:08 435.822/435.867
Oscar 19 28 Jul 03:16:35 03:21:23 40° 293° (WNW) 03:26:11 437.125/150
BEESAT 3 28 Jul 03:19:18 03:23:14 59° 237° (WSW) 03:27:07 437.485
DANDE 28 Jul 03:26:52 03:30:12 18° 93° (E) 03:33:02 436.750
BEESAT 2 28 Jul 03:27:16 03:31:17 88° 234° (SW) 03:35:17 435.950
GONETS M04 28 Jul 03:44:07 03:52:20 46° 273° (W) 04:00:33
Cosmos 2499 28 Jul 03:44:57 03:52:34 54° 270° (W) 03:59:39 435.465 / 435.565
SWISSCUBE 28 Jul 03:47:50 03:50:08 13° 272° (W) 03:52:27 437.505
KKS-1 28 Jul 03:56:03 04:00:29 74° 257° (WSW) 04:04:58 437.445
AIST 2 28 Jul 03:58:47 04:01:44 18° 35° (NE) 04:04:41 435.215
